| time (UTC) | temp F | wind direction | speed knots | gust knots | rain 1hr in | rain 24hr in | rain mn in | humidity % | barometer mb |
| 20260510141527 | 65 | 145 | 1.7 | 4.3 | 0.00 | 0.00 | 0.00 | 96 | 1017.6 |
| 20260510140546 | 64 | 155 | 1.7 | 4.3 | 0.00 | 0.00 | 0.00 | 96 | 1017.6 |
| 20260510135528 | 64 | 245 | 0.9 | 2.6 | 0.00 | 0.00 | 0.00 | 97 | 1017.5 |
| 20260510134606 | 64 | 245 | 0.0 | 2.6 | 0.00 | 0.00 | 0.00 | 97 | 1017.6 |
| 20260510133525 | 64 | 247 | 1.7 | 3.5 | 0.00 | 0.00 | 0.00 | 96 | 1017.6 |
| 20260510132527 | 64 | 247 | 0.9 | 3.5 | 0.00 | 0.00 | 0.00 | 96 | 1017.4 |
| 20260510131548 | 64 | 239 | 0.9 | 3.5 | 0.00 | 0.00 | 0.00 | 96 | 1017.3 |
| 20260510130528 | 64 | 208 | 0.9 | 2.6 | 0.00 | 0.00 | 0.00 | 96 | 1017.2 |
| 20260510125606 | 64 | 216 | 0.9 | 2.6 | 0.00 | 0.00 | 0.00 | 96 | 1017.0 |
| 20260510124546 | 64 | 291 | 0.9 | 2.6 | 0.00 | 0.00 | 0.00 | 97 | 1017.0 |
| 20260510123527 | 63 | 166 | 0.9 | 3.5 | 0.00 | 0.00 | 0.00 | 96 | 1016.7 |
| 20260510122527 | 63 | 143 | 1.7 | 3.5 | 0.00 | 0.00 | 0.00 | 96 | 1016.8 |
| 20260510121528 | 63 | 214 | 0.0 | 2.6 | 0.00 | 0.00 | 0.00 | 96 | 1016.9 |
| 20260510120526 | 63 | 219 | 0.9 | 2.6 | 0.00 | 0.00 | 0.00 | 96 | 1016.8 |
| 20260510115548 | 63 | 183 | 0.9 | 2.6 | 0.00 | 0.00 | 0.00 | 96 | 1016.6 |
| 20260510114606 | 63 | 166 | 0.9 | 2.6 | 0.00 | 0.00 | 0.00 | 96 | 1016.4 |
| 20260510113528 | 63 | 142 | 0.0 | 2.6 | 0.00 | 0.00 | 0.00 | 96 | 1016.2 |
| 20260510112548 | 63 | 142 | 0.0 | 2.6 | 0.00 | 0.00 | 0.00 | 96 | 1015.8 |
| 20260510111529 | 63 | 142 | 0.0 | 0.9 | 0.00 | 0.00 | 0.00 | 96 | 1015.5 |
| 20260510110527 | 63 | 0.0 | 1.7 | 0.00 | 0.00 | 0.00 | 96 | 1015.3 | |
| 20260510105527 | 63 | 142 | 0.0 | 1.7 | 0.00 | 0.00 | 0.00 | 96 | 1015.0 |
| 20260510104528 | 63 | 0.0 | 0.0 | 0.00 | 0.00 | 0.00 | 96 | 1014.7 | |
| 20260510103527 | 63 | 0.0 | 0.0 | 0.00 | 0.00 | 0.00 | 96 | 1014.5 | |
| 20260510102528 | 63 | 0.0 | 0.9 | 0.00 | 0.00 | 0.00 | 96 | 1014.5 | |
| 20260510101545 | 63 | 142 | 0.0 | 1.7 | 0.00 | 0.00 | 0.00 | 96 | 1014.5 |
| 20260510100526 | 62 | 0.0 | 0.0 | 0.00 | 0.00 | 0.00 | 96 | 1014.5 | |
| 20260510095526 | 62 | 0.0 | 1.7 | 0.00 | 0.00 | 0.00 | 96 | 1014.5 | |
| 20260510094545 | 62 | 142 | 0.0 | 1.7 | 0.00 | 0.00 | 0.00 | 96 | 1014.2 |
| 20260510093525 | 62 | 0.0 | 0.9 | 0.00 | 0.00 | 0.00 | 96 | 1014.1 | |
| 20260510092526 | 62 | 0.0 | 0.0 | 0.00 | 0.00 | 0.00 | 96 | 1014.0 | |
| 20260510091526 | 62 | 0.0 | 0.0 | 0.00 | 0.00 | 0.00 | 96 | 1014.1 | |
| 20260510090525 | 62 | 0.0 | 0.0 | 0.00 | 0.00 | 0.00 | 96 | 1014.0 | |
| 20260510085526 | 61 | 0.0 | 1.7 | 0.00 | 0.00 | 0.00 | 96 | 1013.9 | |
| 20260510084528 | 61 | 142 | 0.0 | 1.7 | 0.00 | 0.00 | 0.00 | 96 | 1013.8 |
| 20260510083526 | 60 | 0.0 | 0.0 | 0.00 | 0.00 | 0.00 | 95 | 1013.6 | |
| 20260510082527 | 60 | 0.0 | 0.0 | 0.00 | 0.00 | 0.00 | 95 | 1013.5 | |
| 20260510081528 | 60 | 0.0 | 0.0 | 0.00 | 0.00 | 0.00 | 95 | 1013.4 | |
| 20260510080526 | 60 | 0.0 | 0.0 | 0.00 | 0.00 | 0.00 | 95 | 1013.3 | |
| 20260510075547 | 60 | 0.0 | 0.0 | 0.00 | 0.00 | 0.00 | 95 | 1013.1 | |
| 20260510074525 | 60 | 0.0 | 0.0 | 0.00 | 0.00 | 0.00 | 95 | 1013.1 | |
| 20260510073708 | 61 | 0.0 | 0.0 | 0.00 | 0.00 | 0.00 | 95 | 1013.0 | |
| 20260510072528 | 61 | 0.0 | 0.0 | 0.00 | 0.00 | 0.00 | 95 | 1013.0 | |
| 20260510071528 | 60 | 0.0 | 0.0 | 0.00 | 0.00 | 0.00 | 95 | 1013.1 | |
| 20260510070527 | 60 | 0.0 | 0.0 | 0.00 | 0.00 | 0.00 | 95 | 1013.2 | |
| 20260510065548 | 60 | 0.0 | 0.0 | 0.00 | 0.00 | 0.00 | 95 | 1013.2 | |
| 20260510064528 | 60 | 0.0 | 0.0 | 0.00 | 0.00 | 0.00 | 95 | 1013.3 | |
| 20260510063527 | 60 | 0.0 | 0.0 | 0.00 | 0.00 | 0.00 | 95 | 1013.2 | |
| 20260510062528 | 61 | 0.0 | 0.0 | 0.00 | 0.00 | 0.00 | 95 | 1013.4 | |
| 20260510061526 | 61 | 0.0 | 0.0 | 0.00 | 0.00 | 0.00 | 95 | 1013.4 | |
| 20260510060527 | 60 | 0.0 | 0.0 | 0.00 | 0.00 | 0.00 | 95 | 1013.5 | |
| 20260510055529 | 60 | 0.0 | 0.0 | 0.00 | 0.00 | 0.00 | 94 | 1013.4 | |
| 20260510054527 | 60 | 0.0 | 0.0 | 0.00 | 0.00 | 0.00 | 94 | 1013.4 | |
| 20260510053552 | 61 | 0.0 | 0.0 | 0.00 | 0.00 | 0.00 | 94 | 1013.5 | |
| 20260510052527 | 61 | 0.0 | 0.9 | 0.00 | 0.00 | 0.00 | 94 | 1013.5 | |
| 20260510051546 | 61 | 143 | 0.0 | 0.9 | 0.00 | 0.00 | 0.00 | 94 | 1013.5 |
| 20260510050548 | 61 | 0.0 | 0.0 | 0.00 | 0.00 | 0.00 | 94 | 1013.6 | |
| 20260510045528 | 61 | 0.0 | 0.0 | 0.00 | 0.00 | 0.00 | 94 | 1013.7 | |
| 20260510044528 | 61 | 0.0 | 0.0 | 0.00 | 0.00 | 0.00 | 94 | 1013.7 | |
| 20260510043527 | 61 | 0.0 | 0.0 | 0.00 | 0.00 | 0.00 | 94 | 1013.7 | |
| 20260510042527 | 61 | 0.0 | 0.0 | 0.00 | 0.00 | 0.00 | 94 | 1013.8 | |
| 20260510041527 | 61 | 0.0 | 0.0 | 0.00 | 0.00 | 0.00 | 94 | 1013.7 | |
| 20260510040529 | 61 | 0.0 | 0.0 | 0.00 | 0.00 | 0.00 | 94 | 1013.7 | |
| 20260510035526 | 62 | 0.0 | 0.0 | 0.00 | 0.00 | 0.00 | 93 | 1013.9 | |
| 20260510034606 | 62 | 0.0 | 0.0 | 0.00 | 0.00 | 0.00 | 93 | 1013.9 | |
| 20260510033526 | 62 | 0.0 | 0.0 | 0.00 | 0.00 | 0.00 | 94 | 1014.0 | |
| 20260510032525 | 62 | 0.0 | 0.0 | 0.00 | 0.00 | 0.00 | 93 | 1014.1 | |
| 20260510031606 | 62 | 0.0 | 0.9 | 0.00 | 0.00 | 0.00 | 92 | 1014.1 | |
| 20260510030526 | 63 | 0.0 | 0.0 | 0.00 | 0.00 | 0.00 | 92 | 1013.9 | |
| 20260510025526 | 63 | 0.0 | 0.0 | 0.00 | 0.00 | 0.00 | 92 | 1013.9 | |
| 20260510024526 | 63 | 0.0 | 0.0 | 0.00 | 0.00 | 0.00 | 92 | 1013.8 | |
| 20260510023526 | 64 | 0.0 | 0.0 | 0.00 | 0.00 | 0.00 | 91 | 1013.6 | |
| 20260510022526 | 64 | 0.0 | 0.0 | 0.00 | 0.00 | 0.00 | 91 | 1013.5 | |
| 20260510021525 | 65 | 0.0 | 0.0 | 0.00 | 0.00 | 0.00 | 90 | 1013.3 | |
| 20260510020525 | 65 | 0.0 | 0.0 | 0.00 | 0.00 | 0.00 | 90 | 1013.2 | |
| 20260510015525 | 65 | 0.0 | 0.0 | 0.00 | 0.00 | 0.00 | 90 | 1013.2 | |
| 20260510014526 | 65 | 0.0 | 0.0 | 0.00 | 0.00 | 0.00 | 90 | 1013.1 | |
| 20260510013546 | 66 | 0.0 | 0.0 | 0.00 | 0.00 | 0.00 | 89 | 1012.9 | |
| 20260510012527 | 67 | 0.0 | 0.0 | 0.00 | 0.00 | 0.00 | 89 | 1012.7 | |
| 20260510011548 | 67 | 0.0 | 0.0 | 0.00 | 0.00 | 0.00 | 87 | 1012.5 | |
| 20260510010530 | 68 | 0.0 | 0.0 | 0.00 | 0.00 | 0.00 | 85 | 1012.1 | |
| 20260510005526 | 69 | 0.0 | 0.0 | 0.00 | 0.00 | 0.00 | 84 | 1011.9 | |
| 20260510004528 | 70 | 0.0 | 0.0 | 0.00 | 0.00 | 0.00 | 82 | 1011.8 | |
| 20260510003527 | 71 | 0.0 | 0.0 | 0.00 | 0.00 | 0.00 | 81 | 1011.4 | |
| 20260510002526 | 71 | 0.0 | 0.0 | 0.00 | 0.00 | 0.00 | 79 | 1011.4 | |
| 20260510001528 | 72 | 0.0 | 1.7 | 0.00 | 0.00 | 0.00 | 80 | 1011.3 | |
| 20260510000534 | 72 | 143 | 0.9 | 2.6 | 0.00 | 0.00 | 0.00 | 79 | 1011.2 |
| 20260509235535 | 73 | 149 | 0.9 | 2.6 | 0.00 | 0.00 | 0.00 | 78 | 1011.2 |
| 20260509234533 | 73 | 147 | 0.9 | 4.3 | 0.00 | 0.00 | 0.00 | 76 | 1011.2 |
| 20260509233555 | 73 | 148 | 1.7 | 4.3 | 0.00 | 0.00 | 0.00 | 74 | 1011.1 |
| 20260509232536 | 73 | 148 | 1.7 | 4.3 | 0.00 | 0.00 | 0.00 | 75 | 1011.1 |
| 20260509231531 | 73 | 147 | 1.7 | 4.3 | 0.00 | 0.00 | 0.00 | 74 | 1011.2 |
| 20260509230530 | 74 | 132 | 0.9 | 2.6 | 0.00 | 0.00 | 0.00 | 73 | 1011.2 |
| 20260509225532 | 74 | 58 | 0.0 | 1.7 | 0.00 | 0.00 | 0.00 | 73 | 1011.2 |
| 20260509224529 | 74 | 2 | 0.0 | 2.6 | 0.00 | 0.00 | 0.00 | 72 | 1011.2 |
| 20260509223534 | 74 | 1 | 0.9 | 2.6 | 0.00 | 0.00 | 0.00 | 70 | 1011.1 |
| 20260509222553 | 75 | 0.0 | 2.6 | 0.00 | 0.00 | 0.00 | 72 | 1011.2 | |
| 20260509221615 | 75 | 1 | 0.9 | 2.6 | 0.00 | 0.00 | 0.00 | 69 | 1011.2 |
| 20260509220532 | 76 | 2 | 0.9 | 2.6 | 0.00 | 0.00 | 0.00 | 68 | 1011.1 |
| 20260509215532 | 76 | 75 | 0.0 | 2.6 | 0.00 | 0.00 | 0.00 | 68 | 1010.9 |
| 20260509214531 | 76 | 71 | 1.7 | 2.6 | 0.00 | 0.00 | 0.00 | 68 | 1010.9 |
| 20260509213549 | 75 | 348 | 0.9 | 3.5 | 0.00 | 0.00 | 0.00 | 69 | 1010.8 |
| 20260509212533 | 75 | 322 | 1.7 | 4.3 | 0.00 | 0.00 | 0.00 | 71 | 1010.8 |
| 20260509211533 | 75 | 266 | 1.7 | 4.3 | 0.00 | 0.00 | 0.00 | 70 | 1010.8 |
| 20260509210542 | 75 | 163 | 1.7 | 3.5 | 0.00 | 0.00 | 0.00 | 70 | 1010.7 |
| 20260509205549 | 75 | 240 | 2.6 | 3.5 | 0.00 | 0.00 | 0.00 | 69 | 1010.7 |
| 20260509204552 | 75 | 261 | 0.0 | 2.6 | 0.00 | 0.00 | 0.00 | 66 | 1010.8 |
| 20260509203537 | 75 | 196 | 1.7 | 3.5 | 0.00 | 0.00 | 0.00 | 69 | 1010.9 |
| 20260509202528 | 75 | 236 | 1.7 | 4.3 | 0.00 | 0.00 | 0.00 | 70 | 1011.0 |
| 20260509201531 | 74 | 339 | 1.7 | 4.3 | 0.00 | 0.00 | 0.00 | 69 | 1011.0 |
| 20260509200553 | 74 | 315 | 0.9 | 3.5 | 0.00 | 0.00 | 0.00 | 70 | 1011.2 |
| 20260509195530 | 74 | 258 | 1.7 | 3.5 | 0.00 | 0.00 | 0.00 | 71 | 1011.4 |
| 20260509194533 | 74 | 255 | 0.9 | 4.3 | 0.00 | 0.00 | 0.00 | 70 | 1011.3 |
| 20260509193532 | 74 | 242 | 1.7 | 4.3 | 0.00 | 0.00 | 0.00 | 71 | 1011.4 |
| 20260509192531 | 74 | 263 | 0.9 | 3.5 | 0.00 | 0.00 | 0.00 | 71 | 1011.4 |
| 20260509191532 | 74 | 194 | 0.9 | 4.3 | 0.00 | 0.00 | 0.00 | 72 | 1011.5 |
| 20260509190535 | 73 | 170 | 1.7 | 5.2 | 0.00 | 0.00 | 0.00 | 71 | 1011.8 |
| 20260509185540 | 73 | 139 | 1.7 | 5.2 | 0.00 | 0.00 | 0.00 | 71 | 1011.7 |
| 20260509184533 | 73 | 180 | 1.7 | 3.5 | 0.00 | 0.00 | 0.00 | 72 | 1011.9 |
| 20260509183538 | 72 | 95 | 0.9 | 5.2 | 0.00 | 0.00 | 0.00 | 74 | 1011.9 |
| 20260509182533 | 72 | 120 | 1.7 | 3.5 | 0.00 | 0.00 | 0.00 | 72 | 1012.1 |
| 20260509181533 | 72 | 235 | 1.7 | 3.5 | 0.00 | 0.00 | 0.00 | 75 | 1012.1 |
| 20260509180532 | 71 | 151 | 0.9 | 3.5 | 0.00 | 0.00 | 0.00 | 76 | 1012.3 |
| 20260509175534 | 71 | 153 | 0.0 | 3.5 | 0.00 | 0.00 | 0.00 | 76 | 1012.5 |
| 20260509174529 | 71 | 237 | 0.9 | 3.5 | 0.00 | 0.00 | 0.00 | 76 | 1012.7 |
| 20260509173526 | 71 | 159 | 0.9 | 3.5 | 0.00 | 0.00 | 0.00 | 77 | 1012.7 |
| 20260509172529 | 70 | 232 | 1.7 | 4.3 | 0.00 | 0.00 | 0.00 | 81 | 1012.8 |
| 20260509171526 | 70 | 246 | 2.6 | 4.3 | 0.00 | 0.00 | 0.00 | 79 | 1013.0 |
| 20260509170529 | 70 | 214 | 1.7 | 4.3 | 0.00 | 0.00 | 0.00 | 78 | 1012.9 |
| 20260509165529 | 69 | 154 | 1.7 | 4.3 | 0.00 | 0.00 | 0.00 | 77 | 1013.0 |
| 20260509164547 | 69 | 161 | 0.9 | 5.2 | 0.00 | 0.00 | 0.00 | 80 | 1012.8 |
| 20260509163549 | 69 | 135 | 2.6 | 4.3 | 0.00 | 0.00 | 0.00 | 80 | 1012.9 |
| 20260509162527 | 68 | 238 | 1.7 | 7.8 | 0.00 | 0.00 | 0.00 | 84 | 1013.2 |
| 20260509161528 | 68 | 146 | 4.3 | 7.8 | 0.00 | 0.00 | 0.00 | 83 | 1013.1 |
| 20260509160528 | 68 | 147 | 2.6 | 6.1 | 0.00 | 0.00 | 0.00 | 81 | 1013.0 |
| 20260509155528 | 68 | 150 | 2.6 | 6.1 | 0.00 | 0.00 | 0.00 | 83 | 1013.0 |
| 20260509154528 | 68 | 203 | 0.9 | 3.5 | 0.00 | 0.00 | 0.00 | 82 | 1013.1 |
| 20260509153528 | 68 | 220 | 1.7 | 3.5 | 0.00 | 0.00 | 0.00 | 87 | 1013.1 |
| 20260509152546 | 66 | 176 | 1.7 | 3.5 | 0.00 | 0.00 | 0.00 | 87 | 1013.0 |
| 20260509151528 | 66 | 227 | 1.7 | 3.5 | 0.00 | 0.00 | 0.00 | 90 | 1012.9 |
| 20260509150529 | 65 | 258 | 1.7 | 4.3 | 0.00 | 0.00 | 0.00 | 92 | 1012.9 |
| 20260509145527 | 65 | 157 | 0.9 | 3.5 | 0.00 | 0.00 | 0.00 | 94 | 1012.8 |
| 20260509144548 | 64 | 147 | 0.0 | 2.6 | 0.00 | 0.00 | 0.00 | 95 | 1012.7 |
| 20260509143527 | 64 | 145 | 0.0 | 3.5 | 0.00 | 0.00 | 0.00 | 95 | 1012.5 |
| 20260509142526 | 63 | 135 | 0.9 | 4.3 | 0.00 | 0.00 | 0.00 | 95 | 1012.7 |